| time (UTC) | temp F | wind direction | speed MPH | gust MPH | rain 1hr in | rain 24hr in | rain mn in | humidity % | barometer mb |
| 20260906210107 | 76 | 46 | 3.0 | 5.0 | 0.00 | 0.00 | 0.00 | 64 | 1013.8 |
| 20260906205911 | 75 | 37 | 3.0 | 5.0 | 0.00 | 0.00 | 0.00 | 65 | 1013.8 |
| 20260906205606 | 75 | 41 | 2.0 | 5.0 | 0.00 | 0.00 | 0.00 | 65 | 1013.8 |
| 20260906205411 | 75 | 42 | 3.0 | 5.0 | 0.00 | 0.00 | 0.00 | 64 | 1013.7 |
| 20260906205105 | 75 | 18 | 3.0 | 6.0 | 0.00 | 0.00 | 0.00 | 64 | 1013.8 |
| 20260906204916 | 75 | 19 | 3.0 | 6.0 | 0.00 | 0.00 | 0.00 | 64 | 1013.7 |
| 20260906204611 | 75 | 351 | 2.0 | 6.0 | 0.00 | 0.00 | 0.00 | 64 | 1013.7 |
| 20260906204443 | 76 | 351 | 3.0 | 6.0 | 0.00 | 0.00 | 0.00 | 62 | 1013.7 |
| 20260906204135 | 76 | 346 | 2.0 | 5.0 | 0.00 | 0.00 | 0.00 | 62 | 1013.6 |
| 20260906203942 | 76 | 346 | 3.0 | 5.0 | 0.00 | 0.00 | 0.00 | 62 | 1013.6 |
| 20260906203641 | 75 | 41 | 2.0 | 5.0 | 0.00 | 0.00 | 0.00 | 63 | 1013.6 |
| 20260906203421 | 75 | 41 | 2.0 | 5.0 | 0.00 | 0.00 | 0.00 | 62 | 1013.6 |
| 20260906203126 | 76 | 356 | 3.0 | 5.0 | 0.00 | 0.00 | 0.00 | 63 | 1013.6 |
| 20260906202926 | 76 | 356 | 3.0 | 5.0 | 0.00 | 0.00 | 0.00 | 61 | 1013.6 |
| 20260906202603 | 76 | 50 | 2.0 | 4.0 | 0.00 | 0.00 | 0.00 | 62 | 1013.5 |
| 20260906202404 | 76 | 56 | 2.0 | 4.0 | 0.00 | 0.00 | 0.00 | 62 | 1013.6 |
| 20260906202103 | 76 | 32 | 2.0 | 5.0 | 0.00 | 0.00 | 0.00 | 64 | 1013.5 |
| 20260906201904 | 76 | 51 | 2.0 | 8.0 | 0.00 | 0.00 | 0.00 | 62 | 1013.5 |
| 20260906201609 | 77 | 51 | 3.0 | 8.0 | 0.00 | 0.00 | 0.00 | 61 | 1013.6 |
| 20260906201410 | 77 | 50 | 4.0 | 8.0 | 0.00 | 0.00 | 0.00 | 59 | 1013.5 |
| 20260906201129 | 78 | 46 | 4.0 | 6.0 | 0.00 | 0.00 | 0.00 | 59 | 1013.5 |
| 20260906200917 | 79 | 26 | 2.0 | 5.0 | 0.00 | 0.00 | 0.00 | 59 | 1013.6 |
| 20260906200634 | 79 | 54 | 1.0 | 5.0 | 0.00 | 0.00 | 0.00 | 61 | 1013.5 |
| 20260906200413 | 78 | 56 | 3.0 | 5.0 | 0.00 | 0.00 | 0.00 | 59 | 1013.4 |
| 20260906200111 | 77 | 6 | 2.0 | 6.0 | 0.00 | 0.00 | 0.00 | 62 | 1013.5 |
| 20260906195918 | 77 | 356 | 1.0 | 6.0 | 0.00 | 0.00 | 0.00 | 64 | 1013.4 |
| 20260906195616 | 76 | 356 | 3.0 | 6.0 | 0.00 | 0.00 | 0.00 | 61 | 1013.4 |
| 20260906195438 | 76 | 356 | 2.0 | 6.0 | 0.00 | 0.00 | 0.00 | 62 | 1013.4 |
| 20260906195122 | 77 | 356 | 3.0 | 6.0 | 0.00 | 0.00 | 0.00 | 61 | 1013.4 |
| 20260906194923 | 77 | 356 | 3.0 | 6.0 | 0.00 | 0.00 | 0.00 | 61 | 1013.4 |
| 20260906194642 | 77 | 9 | 2.0 | 5.0 | 0.00 | 0.00 | 0.00 | 61 | 1013.4 |
| 20260906194428 | 77 | 7 | 2.0 | 5.0 | 0.00 | 0.00 | 0.00 | 61 | 1013.3 |
| 20260906194126 | 77 | 6 | 3.0 | 8.0 | 0.00 | 0.00 | 0.00 | 62 | 1013.2 |
| 20260906193906 | 77 | 7 | 3.0 | 8.0 | 0.00 | 0.00 | 0.00 | 60 | 1013.3 |
| 20260906193605 | 78 | 5 | 4.0 | 8.0 | 0.00 | 0.00 | 0.00 | 59 | 1013.3 |
| 20260906193405 | 78 | 356 | 3.0 | 8.0 | 0.00 | 0.00 | 0.00 | 58 | 1013.3 |
| 20260906193123 | 78 | 351 | 2.0 | 8.0 | 0.00 | 0.00 | 0.00 | 60 | 1013.4 |
| 20260906192930 | 78 | 346 | 1.0 | 8.0 | 0.00 | 0.00 | 0.00 | 61 | 1013.3 |
| 20260906192608 | 78 | 356 | 4.0 | 8.0 | 0.00 | 0.00 | 0.00 | 59 | 1013.4 |
| 20260906192429 | 78 | 346 | 4.0 | 8.0 | 0.00 | 0.00 | 0.00 | 59 | 1013.4 |
| 20260906192133 | 78 | 58 | 1.0 | 12.0 | 0.00 | 0.00 | 0.00 | 60 | 1013.4 |
| 20260906191913 | 78 | 11 | 1.0 | 12.0 | 0.00 | 0.00 | 0.00 | 59 | 1013.4 |
| 20260906191618 | 78 | 10 | 2.0 | 12.0 | 0.00 | 0.00 | 0.00 | 60 | 1013.4 |
| 20260906191419 | 78 | 351 | 4.0 | 12.0 | 0.00 | 0.00 | 0.00 | 60 | 1013.4 |
| 20260906191116 | 78 | 25 | 2.0 | 10.0 | 0.00 | 0.00 | 0.00 | 59 | 1013.4 |
| 20260906190917 | 78 | 360 | 4.0 | 10.0 | 0.00 | 0.00 | 0.00 | 61 | 1013.4 |
| 20260906190612 | 78 | 333 | 3.0 | 9.0 | 0.00 | 0.00 | 0.00 | 62 | 1013.4 |
| 20260906190420 | 77 | 356 | 5.0 | 9.0 | 0.00 | 0.00 | 0.00 | 61 | 1013.4 |
| 20260906190118 | 77 | 57 | 4.0 | 8.0 | 0.00 | 0.00 | 0.00 | 60 | 1013.4 |
| 20260906185918 | 77 | 48 | 3.0 | 8.0 | 0.00 | 0.00 | 0.00 | 61 | 1013.4 |
| 20260906185616 | 77 | 8 | 1.0 | 9.0 | 0.00 | 0.00 | 0.00 | 64 | 1013.4 |
| 20260906185414 | 76 | 9 | 1.0 | 9.0 | 0.00 | 0.00 | 0.00 | 65 | 1013.5 |
| 20260906185120 | 75 | 5 | 3.0 | 9.0 | 0.00 | 0.00 | 0.00 | 65 | 1013.6 |
| 20260906184941 | 75 | 360 | 3.0 | 9.0 | 0.00 | 0.00 | 0.00 | 65 | 1013.6 |
| 20260906184614 | 75 | 44 | 3.0 | 8.0 | 0.00 | 0.00 | 0.00 | 65 | 1013.7 |
| 20260906184418 | 75 | 41 | 3.0 | 8.0 | 0.00 | 0.00 | 0.00 | 66 | 1013.6 |
| 20260906184118 | 75 | 5 | 3.0 | 8.0 | 0.00 | 0.00 | 0.00 | 67 | 1013.7 |
| 20260906183904 | 76 | 356 | 3.0 | 8.0 | 0.00 | 0.00 | 0.00 | 66 | 1013.8 |
| 20260906183617 | 76 | 351 | 4.0 | 8.0 | 0.00 | 0.00 | 0.00 | 64 | 1013.8 |
| 20260906183422 | 76 | 17 | 3.0 | 8.0 | 0.00 | 0.00 | 0.00 | 65 | 1013.7 |
| 20260906183117 | 76 | 6 | 3.0 | 8.0 | 0.00 | 0.00 | 0.00 | 67 | 1013.7 |
| 20260906182928 | 75 | 346 | 3.0 | 8.0 | 0.00 | 0.00 | 0.00 | 66 | 1013.6 |
| 20260906182622 | 75 | 60 | 4.0 | 9.0 | 0.00 | 0.00 | 0.00 | 66 | 1013.7 |
| 20260906182406 | 75 | 58 | 3.0 | 9.0 | 0.00 | 0.00 | 0.00 | 67 | 1013.7 |
| 20260906182105 | 74 | 3 | 4.0 | 10.0 | 0.00 | 0.00 | 0.00 | 66 | 1013.7 |
| 20260906181926 | 74 | 8 | 5.0 | 10.0 | 0.00 | 0.00 | 0.00 | 65 | 1013.7 |
| 20260906181606 | 75 | 9 | 3.0 | 10.0 | 0.00 | 0.00 | 0.00 | 65 | 1013.7 |
| 20260906181411 | 75 | 8 | 5.0 | 10.0 | 0.00 | 0.00 | 0.00 | 64 | 1013.7 |
| 20260906181105 | 76 | 7 | 3.0 | 7.0 | 0.00 | 0.00 | 0.00 | 65 | 1013.7 |
| 20260906180910 | 76 | 37 | 3.0 | 7.0 | 0.00 | 0.00 | 0.00 | 64 | 1013.7 |
| 20260906180632 | 77 | 52 | 5.0 | 7.0 | 0.00 | 0.00 | 0.00 | 64 | 1013.7 |
| 20260906180416 | 77 | 12 | 4.0 | 6.0 | 0.00 | 0.00 | 0.00 | 66 | 1013.7 |
| 20260906180110 | 77 | 2 | 3.0 | 6.0 | 0.00 | 0.00 | 0.00 | 65 | 1013.7 |
| 20260906175921 | 77 | 4 | 2.0 | 10.0 | 0.00 | 0.00 | 0.00 | 64 | 1013.7 |
| 20260906175615 | 77 | 11 | 2.0 | 10.0 | 0.00 | 0.00 | 0.00 | 64 | 1013.6 |
| 20260906175421 | 77 | 6 | 1.0 | 10.0 | 0.00 | 0.00 | 0.00 | 64 | 1013.7 |
| 20260906175115 | 77 | 6 | 3.0 | 8.0 | 0.00 | 0.00 | 0.00 | 65 | 1013.7 |
| 20260906174920 | 76 | 351 | 3.0 | 8.0 | 0.00 | 0.00 | 0.00 | 66 | 1013.7 |
| 20260906174614 | 76 | 10 | 4.0 | 10.0 | 0.00 | 0.00 | 0.00 | 64 | 1013.7 |
| 20260906174425 | 76 | 4 | 2.0 | 10.0 | 0.00 | 0.00 | 0.00 | 65 | 1013.7 |
| 20260906174119 | 76 | 64 | 6.0 | 11.0 | 0.00 | 0.00 | 0.00 | 63 | 1013.7 |
| 20260906173925 | 76 | 36 | 3.0 | 11.0 | 0.00 | 0.00 | 0.00 | 63 | 1013.7 |
| 20260906173625 | 76 | 13 | 3.0 | 11.0 | 0.00 | 0.00 | 0.00 | 63 | 1013.8 |
| 20260906173404 | 76 | 360 | 4.0 | 11.0 | 0.00 | 0.00 | 0.00 | 64 | 1013.8 |
| 20260906173104 | 76 | 6 | 4.0 | 11.0 | 0.00 | 0.00 | 0.00 | 62 | 1013.8 |
| 20260906172909 | 76 | 9 | 4.0 | 10.0 | 0.00 | 0.00 | 0.00 | 63 | 1013.9 |
| 20260906172603 | 77 | 351 | 5.0 | 10.0 | 0.00 | 0.00 | 0.00 | 64 | 1013.9 |
| 20260906172406 | 76 | 360 | 4.0 | 12.0 | 0.00 | 0.00 | 0.00 | 65 | 1013.9 |
| 20260906172126 | 76 | 25 | 4.0 | 12.0 | 0.00 | 0.00 | 0.00 | 66 | 1013.9 |
| 20260906171910 | 76 | 7 | 3.0 | 12.0 | 0.00 | 0.00 | 0.00 | 63 | 1013.9 |
| 20260906171604 | 76 | 342 | 5.0 | 12.0 | 0.00 | 0.00 | 0.00 | 62 | 1013.9 |
| 20260906171407 | 76 | 19 | 6.0 | 11.0 | 0.00 | 0.00 | 0.00 | 65 | 1013.9 |
| 20260906171129 | 76 | 360 | 4.0 | 11.0 | 0.00 | 0.00 | 0.00 | 66 | 1013.9 |
| 20260906170913 | 76 | 12 | 5.0 | 11.0 | 0.00 | 0.00 | 0.00 | 68 | 1013.9 |
| 20260906170608 | 75 | 346 | 2.0 | 10.0 | 0.00 | 0.00 | 0.00 | 70 | 1013.9 |
| 20260906170440 | 75 | 5 | 2.0 | 10.0 | 0.00 | 0.00 | 0.00 | 69 | 1014.0 |
| 20260906170113 | 75 | 40 | 2.0 | 10.0 | 0.00 | 0.00 | 0.00 | 68 | 1014.0 |
| 20260906165917 | 75 | 19 | 4.0 | 10.0 | 0.00 | 0.00 | 0.00 | 68 | 1014.0 |
| 20260906165609 | 75 | 35 | 2.0 | 10.0 | 0.00 | 0.00 | 0.00 | 68 | 1014.0 |
| 20260906165413 | 75 | 4 | 5.0 | 11.0 | 0.00 | 0.00 | 0.00 | 67 | 1014.0 |
| 20260906165135 | 75 | 25 | 4.0 | 11.0 | 0.00 | 0.00 | 0.00 | 67 | 1014.0 |
| 20260906164919 | 75 | 33 | 5.0 | 11.0 | 0.00 | 0.00 | 0.00 | 67 | 1014.0 |
| 20260906164612 | 75 | 351 | 6.0 | 11.0 | 0.00 | 0.00 | 0.00 | 67 | 1014.0 |
| 20260906164423 | 75 | 346 | 5.0 | 9.0 | 0.00 | 0.00 | 0.00 | 67 | 1014.0 |
| 20260906164118 | 75 | 360 | 3.0 | 10.0 | 0.00 | 0.00 | 0.00 | 69 | 1014.0 |
| 20260906163922 | 75 | 19 | 2.0 | 10.0 | 0.00 | 0.00 | 0.00 | 69 | 1014.0 |
| 20260906163617 | 75 | 5 | 5.0 | 10.0 | 0.00 | 0.00 | 0.00 | 69 | 1014.0 |
| 20260906163444 | 75 | 360 | 2.0 | 8.0 | 0.00 | 0.00 | 0.00 | 70 | 1014.0 |
| 20260906163120 | 75 | 23 | 2.0 | 8.0 | 0.00 | 0.00 | 0.00 | 71 | 1014.0 |
| 20260906162941 | 74 | 19 | 5.0 | 9.0 | 0.00 | 0.00 | 0.00 | 71 | 1014.1 |
| 20260906162624 | 74 | 45 | 4.0 | 9.0 | 0.00 | 0.00 | 0.00 | 71 | 1014.1 |
| 20260906162426 | 75 | 66 | 3.0 | 9.0 | 0.00 | 0.00 | 0.00 | 71 | 1014.1 |
| 20260906162104 | 75 | 45 | 4.0 | 9.0 | 0.00 | 0.00 | 0.00 | 71 | 1014.1 |
| 20260906161932 | 75 | 55 | 3.0 | 6.0 | 0.00 | 0.00 | 0.00 | 71 | 1014.1 |
| 20260906161609 | 74 | 17 | 3.0 | 6.0 | 0.00 | 0.00 | 0.00 | 72 | 1014.1 |
| 20260906161410 | 74 | 13 | 4.0 | 6.0 | 0.00 | 0.00 | 0.00 | 71 | 1014.1 |
| 20260906161108 | 74 | 13 | 3.0 | 6.0 | 0.00 | 0.00 | 0.00 | 74 | 1014.2 |
| 20260906160936 | 73 | 10 | 3.0 | 6.0 | 0.00 | 0.00 | 0.00 | 74 | 1014.2 |
| 20260906160613 | 73 | 360 | 3.0 | 8.0 | 0.00 | 0.00 | 0.00 | 72 | 1014.2 |
| 20260906160413 | 73 | 327 | 3.0 | 10.0 | 0.00 | 0.00 | 0.00 | 72 | 1014.1 |
| 20260906160118 | 73 | 18 | 3.0 | 10.0 | 0.00 | 0.00 | 0.00 | 71 | 1014.2 |
| 20260906155918 | 73 | 14 | 3.0 | 12.0 | 0.00 | 0.00 | 0.00 | 71 | 1014.2 |
| 20260906155617 | 73 | 168 | 4.0 | 12.0 | 0.00 | 0.00 | 0.00 | 71 | 1014.3 |
| 20260906155418 | 73 | 52 | 4.0 | 12.0 | 0.00 | 0.00 | 0.00 | 71 | 1014.4 |
| 20260906155115 | 73 | 40 | 6.0 | 12.0 | 0.00 | 0.00 | 0.00 | 71 | 1014.3 |
| 20260906154943 | 73 | 5 | 3.0 | 11.0 | 0.00 | 0.00 | 0.00 | 75 | 1014.3 |
| 20260906154620 | 72 | 1 | 4.0 | 11.0 | 0.00 | 0.00 | 0.00 | 75 | 1014.3 |
| 20260906154421 | 72 | 11 | 6.0 | 11.0 | 0.00 | 0.00 | 0.00 | 74 | 1014.3 |
| 20260906154119 | 72 | 62 | 2.0 | 6.0 | 0.00 | 0.00 | 0.00 | 75 | 1014.4 |
| 20260906153926 | 72 | 8 | 2.0 | 9.0 | 0.00 | 0.00 | 0.00 | 74 | 1014.4 |
| 20260906153625 | 72 | 18 | 2.0 | 9.0 | 0.00 | 0.00 | 0.00 | 73 | 1014.4 |
| 20260906153404 | 72 | 6 | 2.0 | 9.0 | 0.00 | 0.00 | 0.00 | 72 | 1014.4 |
| 20260906153122 | 73 | 13 | 5.0 | 9.0 | 0.00 | 0.00 | 0.00 | 72 | 1014.3 |
| 20260906152923 | 73 | 9 | 3.0 | 6.0 | 0.00 | 0.00 | 0.00 | 73 | 1014.3 |
| 20260906152626 | 73 | 141 | 1.0 | 8.0 | 0.00 | 0.00 | 0.00 | 76 | 1014.4 |
| 20260906152427 | 73 | 133 | 2.0 | 8.0 | 0.00 | 0.00 | 0.00 | 75 | 1014.4 |
| 20260906152126 | 72 | 6 | 3.0 | 8.0 | 0.00 | 0.00 | 0.00 | 76 | 1014.4 |
| 20260906151905 | 72 | 8 | 2.0 | 9.0 | 0.00 | 0.00 | 0.00 | 77 | 1014.4 |
| 20260906151609 | 72 | 9 | 4.0 | 9.0 | 0.00 | 0.00 | 0.00 | 76 | 1014.4 |
| 20260906151410 | 71 | 24 | 3.0 | 9.0 | 0.00 | 0.00 | 0.00 | 76 | 1014.4 |
| 20260906151109 | 71 | 3 | 6.0 | 9.0 | 0.00 | 0.00 | 0.00 | 76 | 1014.4 |
| 20260906150910 | 71 | 17 | 3.0 | 9.0 | 0.00 | 0.00 | 0.00 | 76 | 1014.3 |
| 20260906150608 | 72 | 6 | 3.0 | 9.0 | 0.00 | 0.00 | 0.00 | 76 | 1014.3 |
| 20260906150436 | 71 | 12 | 5.0 | 9.0 | 0.00 | 0.00 | 0.00 | 76 | 1014.3 |
| 20260906150113 | 72 | 29 | 4.0 | 6.0 | 0.00 | 0.00 | 0.00 | 77 | 1014.4 |
| 20260906145914 | 72 | 58 | 4.0 | 8.0 | 0.00 | 0.00 | 0.00 | 77 | 1014.4 |
| 20260906145612 | 72 | 21 | 3.0 | 8.0 | 0.00 | 0.00 | 0.00 | 77 | 1014.4 |
| 20260906145419 | 72 | 8 | 2.0 | 8.0 | 0.00 | 0.00 | 0.00 | 77 | 1014.3 |
| 20260906145117 | 72 | 346 | 2.0 | 8.0 | 0.00 | 0.00 | 0.00 | 77 | 1014.4 |
| 20260906144918 | 71 | 14 | 4.0 | 10.0 | 0.00 | 0.00 | 0.00 | 77 | 1014.3 |
| 20260906144617 | 71 | 356 | 3.0 | 10.0 | 0.00 | 0.00 | 0.00 | 77 | 1014.4 |
| 20260906144416 | 71 | 356 | 4.0 | 10.0 | 0.00 | 0.00 | 0.00 | 77 | 1014.3 |
| 20260906144120 | 72 | 5 | 5.0 | 10.0 | 0.00 | 0.00 | 0.00 | 77 | 1014.4 |
| 20260906143918 | 71 | 351 | 2.0 | 8.0 | 0.00 | 0.00 | 0.00 | 77 | 1014.3 |
| 20260906143616 | 71 | 346 | 4.0 | 8.0 | 0.00 | 0.00 | 0.00 | 78 | 1014.3 |
| 20260906143444 | 71 | 6 | 2.0 | 8.0 | 0.00 | 0.00 | 0.00 | 79 | 1014.3 |
| 20260906143121 | 71 | 7 | 4.0 | 8.0 | 0.00 | 0.00 | 0.00 | 77 | 1014.3 |
| 20260906142921 | 71 | 4 | 4.0 | 8.0 | 0.00 | 0.00 | 0.00 | 77 | 1014.2 |
| 20260906142619 | 71 | 12 | 3.0 | 8.0 | 0.00 | 0.00 | 0.00 | 80 | 1014.1 |
| 20260906142418 | 70 | 10 | 1.0 | 6.0 | 0.00 | 0.00 | 0.00 | 79 | 1014.1 |
| 20260906142123 | 70 | 12 | 1.0 | 6.0 | 0.00 | 0.00 | 0.00 | 80 | 1014.0 |
| 20260906141924 | 70 | 11 | 3.0 | 6.0 | 0.00 | 0.00 | 0.00 | 79 | 1014.1 |
| 20260906141621 | 70 | 356 | 1.0 | 4.0 | 0.00 | 0.00 | 0.00 | 82 | 1014.1 |
| 20260906141422 | 69 | 356 | 2.0 | 4.0 | 0.00 | 0.00 | 0.00 | 81 | 1014.1 |
| 20260906141125 | 69 | 356 | 2.0 | 8.0 | 0.00 | 0.00 | 0.00 | 81 | 1014.1 |
| 20260906140927 | 69 | 356 | 2.0 | 8.0 | 0.00 | 0.00 | 0.00 | 81 | 1014.2 |
| 20260906140604 | 69 | 356 | 2.0 | 8.0 | 0.00 | 0.00 | 0.00 | 81 | 1014.2 |
| 20260906140405 | 69 | 356 | 5.0 | 8.0 | 0.00 | 0.00 | 0.00 | 81 | 1014.2 |
| 20260906140104 | 69 | 356 | 3.0 | 8.0 | 0.00 | 0.00 | 0.00 | 82 | 1014.2 |
| 20260906135912 | 68 | 360 | 1.0 | 8.0 | 0.00 | 0.00 | 0.00 | 82 | 1014.2 |
| 20260906135609 | 68 | 6 | 4.0 | 8.0 | 0.00 | 0.00 | 0.00 | 82 | 1014.2 |
| 20260906135431 | 68 | 5 | 3.0 | 8.0 | 0.00 | 0.00 | 0.00 | 82 | 1014.2 |
| 20260906135115 | 68 | 3 | 4.0 | 8.0 | 0.00 | 0.00 | 0.00 | 82 | 1014.2 |
| 20260906134915 | 68 | 3 | 3.0 | 6.0 | 0.00 | 0.00 | 0.00 | 83 | 1014.2 |
| 20260906134613 | 68 | 356 | 2.0 | 12.0 | 0.00 | 0.00 | 0.00 | 82 | 1014.2 |
| 20260906134414 | 68 | 356 | 2.0 | 13.0 | 0.00 | 0.00 | 0.00 | 82 | 1014.2 |
| 20260906134112 | 68 | 8 | 5.0 | 13.0 | 0.00 | 0.00 | 0.00 | 81 | 1014.2 |
| 20260906133913 | 68 | 6 | 7.0 | 13.0 | 0.00 | 0.00 | 0.00 | 81 | 1014.2 |
| 20260906133635 | 68 | 11 | 7.0 | 12.0 | 0.00 | 0.00 | 0.00 | 81 | 1014.1 |
| 20260906133444 | 68 | 6 | 6.0 | 11.0 | 0.00 | 0.00 | 0.00 | 82 | 1014.1 |
| 20260906133117 | 68 | 15 | 1.0 | 4.0 | 0.00 | 0.00 | 0.00 | 83 | 1014.1 |
| 20260906132922 | 68 | 15 | 2.0 | 4.0 | 0.00 | 0.00 | 0.00 | 83 | 1014.1 |
| 20260906132617 | 68 | 42 | 2.0 | 6.0 | 0.00 | 0.00 | 0.00 | 83 | 1014.1 |
| 20260906132422 | 68 | 356 | 2.0 | 6.0 | 0.00 | 0.00 | 0.00 | 83 | 1014.1 |
| 20260906132115 | 68 | 356 | 2.0 | 6.0 | 0.00 | 0.00 | 0.00 | 83 | 1014.1 |
| 20260906131926 | 68 | 356 | 3.0 | 6.0 | 0.00 | 0.00 | 0.00 | 83 | 1014.1 |
| 20260906131620 | 68 | 356 | 2.0 | 6.0 | 0.00 | 0.00 | 0.00 | 84 | 1014.1 |
| 20260906131405 | 68 | 4 | 3.0 | 6.0 | 0.00 | 0.00 | 0.00 | 83 | 1014.1 |
| 20260906131129 | 68 | 8 | 3.0 | 6.0 | 0.00 | 0.00 | 0.00 | 83 | 1014.0 |
| 20260906130933 | 68 | 360 | 2.0 | 6.0 | 0.00 | 0.00 | 0.00 | 84 | 1014.0 |
| 20260906130607 | 68 | 356 | 3.0 | 6.0 | 0.00 | 0.00 | 0.00 | 84 | 1014.1 |
| 20260906130411 | 68 | 351 | 3.0 | 6.0 | 0.00 | 0.00 | 0.00 | 84 | 1014.0 |
| 20260906130104 | 68 | 15 | 3.0 | 6.0 | 0.00 | 0.00 | 0.00 | 85 | 1014.0 |
| 20260906125915 | 68 | 15 | 2.0 | 9.0 | 0.00 | 0.00 | 0.00 | 85 | 1013.9 |
| 20260906125608 | 67 | 7 | 2.0 | 9.0 | 0.00 | 0.00 | 0.00 | 85 | 1013.9 |
| 20260906125108 | 67 | 356 | 5.0 | 9.0 | 0.00 | 0.00 | 0.00 | 85 | 1013.9 |
| 20260906124912 | 67 | 15 | 2.0 | 5.0 | 0.00 | 0.00 | 0.00 | 86 | 1013.9 |
| 20260906124606 | 67 | 55 | 4.0 | 8.0 | 0.00 | 0.00 | 0.00 | 86 | 1013.9 |
| 20260906124417 | 67 | 14 | 3.0 | 8.0 | 0.00 | 0.00 | 0.00 | 86 | 1013.9 |
| 20260906124133 | 67 | 8 | 4.0 | 8.0 | 0.00 | 0.00 | 0.00 | 86 | 1013.9 |
| 20260906123915 | 67 | 351 | 4.0 | 9.0 | 0.00 | 0.00 | 0.00 | 87 | 1013.9 |
| 20260906123615 | 66 | 356 | 4.0 | 9.0 | 0.00 | 0.00 | 0.00 | 87 | 1013.9 |
| 20260906123420 | 66 | 356 | 4.0 | 9.0 | 0.00 | 0.00 | 0.00 | 87 | 1013.9 |
| 20260906123114 | 66 | 1 | 5.0 | 9.0 | 0.00 | 0.00 | 0.00 | 87 | 1013.8 |
| 20260906122918 | 66 | 356 | 4.0 | 9.0 | 0.00 | 0.00 | 0.00 | 88 | 1013.8 |
| 20260906122613 | 66 | 7 | 3.0 | 9.0 | 0.00 | 0.00 | 0.00 | 88 | 1013.8 |
| 20260906122424 | 66 | 360 | 4.0 | 9.0 | 0.00 | 0.00 | 0.00 | 88 | 1013.8 |
| 20260906122118 | 66 | 8 | 3.0 | 5.0 | 0.00 | 0.00 | 0.00 | 89 | 1013.8 |
| 20260906121943 | 66 | 8 | 4.0 | 5.0 | 0.00 | 0.00 | 0.00 | 89 | 1013.7 |
| 20260906121642 | 66 | 8 | 4.0 | 8.0 | 0.00 | 0.00 | 0.00 | 90 | 1013.7 |
| 20260906121406 | 65 | 2 | 2.0 | 8.0 | 0.00 | 0.00 | 0.00 | 90 | 1013.7 |
| 20260906121121 | 65 | 2 | 4.0 | 8.0 | 0.00 | 0.00 | 0.00 | 90 | 1013.7 |
| 20260906120905 | 65 | 360 | 5.0 | 8.0 | 0.00 | 0.00 | 0.00 | 90 | 1013.7 |
| 20260906120626 | 65 | 2 | 3.0 | 6.0 | 0.00 | 0.00 | 0.00 | 91 | 1013.7 |
| 20260906120411 | 65 | 2 | 2.0 | 4.0 | 0.00 | 0.00 | 0.00 | 91 | 1013.6 |
| 20260906120105 | 65 | 2 | 2.0 | 4.0 | 0.00 | 0.00 | 0.00 | 92 | 1013.6 |
| 20260906115909 | 64 | 2 | 1.0 | 4.0 | 0.00 | 0.00 | 0.00 | 92 | 1013.5 |
| 20260906115629 | 64 | 2 | 3.0 | 5.0 | 0.00 | 0.00 | 0.00 | 92 | 1013.5 |
| 20260906115415 | 64 | 2 | 2.0 | 6.0 | 0.00 | 0.00 | 0.00 | 93 | 1013.5 |
| 20260906115106 | 64 | 2 | 3.0 | 6.0 | 0.00 | 0.00 | 0.00 | 93 | 1013.5 |
| 20260906114931 | 64 | 2 | 4.0 | 6.0 | 0.00 | 0.00 | 0.00 | 93 | 1013.5 |
| 20260906114604 | 63 | 5 | 3.0 | 7.0 | 0.00 | 0.00 | 0.00 | 94 | 1013.5 |
| 20260906114415 | 63 | 5 | 3.0 | 6.0 | 0.00 | 0.00 | 0.00 | 94 | 1013.4 |
| 20260906114111 | 63 | 6 | 3.0 | 6.0 | 0.00 | 0.00 | 0.00 | 94 | 1013.3 |
| 20260906113932 | 63 | 12 | 3.0 | 5.0 | 0.00 | 0.00 | 0.00 | 95 | 1013.4 |
| 20260906113636 | 63 | 15 | 2.0 | 5.0 | 0.00 | 0.00 | 0.00 | 95 | 1013.2 |
| 20260906113417 | 62 | 15 | 2.0 | 5.0 | 0.00 | 0.00 | 0.00 | 95 | 1013.2 |
| 20260906113115 | 62 | 15 | 3.0 | 5.0 | 0.00 | 0.00 | 0.00 | 95 | 1013.2 |
| 20260906112924 | 62 | 24 | 2.0 | 4.0 | 0.00 | 0.00 | 0.00 | 95 | 1013.1 |
| 20260906112620 | 62 | 24 | 2.0 | 4.0 | 0.00 | 0.00 | 0.00 | 96 | 1013.1 |
| 20260906112441 | 62 | 24 | 2.0 | 3.0 | 0.00 | 0.00 | 0.00 | 95 | 1013.1 |
| 20260906112116 | 61 | 24 | 2.0 | 3.0 | 0.00 | 0.00 | 0.00 | 96 | 1013.1 |
| 20260906111923 | 61 | 24 | 2.0 | 3.0 | 0.00 | 0.00 | 0.00 | 96 | 1013.1 |
| 20260906111621 | 61 | 24 | 2.0 | 3.0 | 0.00 | 0.00 | 0.00 | 96 | 1013.1 |
| 20260906111422 | 61 | 24 | 2.0 | 3.0 | 0.00 | 0.00 | 0.00 | 96 | 1013.1 |
| 20260906111119 | 61 | 24 | 2.0 | 3.0 | 0.00 | 0.00 | 0.00 | 95 | 1013.0 |
| 20260906110927 | 61 | 24 | 1.0 | 2.0 | 0.00 | 0.00 | 0.00 | 96 | 1013.0 |
| 20260906110605 | 61 | 24 | 0.0 | 0.0 | 0.00 | 0.00 | 0.00 | 96 | 1013.0 |
| 20260906110406 | 61 | 24 | 0.0 | 0.0 | 0.00 | 0.00 | 0.00 | 96 | 1013.0 |
| 20260906110103 | 61 | 24 | 0.0 | 0.0 | 0.00 | 0.00 | 0.00 | 96 | 1012.9 |
| 20260906105904 | 60 | 24 | 0.0 | 0.0 | 0.00 | 0.00 | 0.00 | 96 | 1012.9 |
| 20260906105608 | 60 | 24 | 0.0 | 0.0 | 0.00 | 0.00 | 0.00 | 96 | 1012.9 |
| 20260906105409 | 60 | 24 | 0.0 | 0.0 | 0.00 | 0.00 | 0.00 | 95 | 1012.9 |
| 20260906105108 | 60 | 24 | 0.0 | 0.0 | 0.00 | 0.00 | 0.00 | 95 | 1012.9 |
| 20260906104909 | 60 | 24 | 0.0 | 0.0 | 0.00 | 0.00 | 0.00 | 95 | 1012.9 |
| 20260906104607 | 60 | 24 | 0.0 | 0.0 | 0.00 | 0.00 | 0.00 | 95 | 1012.9 |
| 20260906104414 | 60 | 24 | 0.0 | 0.0 | 0.00 | 0.00 | 0.00 | 95 | 1012.8 |
| 20260906104113 | 60 | 24 | 0.0 | 0.0 | 0.00 | 0.00 | 0.00 | 95 | 1012.8 |
| 20260906103935 | 60 | 24 | 0.0 | 0.0 | 0.00 | 0.00 | 0.00 | 95 | 1012.7 |
| 20260906103620 | 60 | 24 | 0.0 | 0.0 | 0.00 | 0.00 | 0.00 | 95 | 1012.7 |
| 20260906103420 | 60 | 24 | 0.0 | 0.0 | 0.00 | 0.00 | 0.00 | 95 | 1012.7 |
| 20260906103119 | 60 | 24 | 0.0 | 0.0 | 0.00 | 0.00 | 0.00 | 95 | 1012.6 |
| 20260906102919 | 60 | 24 | 0.0 | 0.0 | 0.00 | 0.00 | 0.00 | 95 | 1012.5 |
| 20260906102617 | 60 | 24 | 0.0 | 2.0 | 0.00 | 0.00 | 0.00 | 95 | 1012.6 |
| 20260906102417 | 60 | 24 | 0.0 | 2.0 | 0.00 | 0.00 | 0.00 | 95 | 1012.6 |
| 20260906102122 | 60 | 24 | 0.0 | 2.0 | 0.00 | 0.00 | 0.00 | 95 | 1012.6 |
| 20260906101904 | 60 | 24 | 1.0 | 2.0 | 0.00 | 0.00 | 0.00 | 95 | 1012.5 |
| 20260906101621 | 60 | 24 | 0.0 | 2.0 | 0.00 | 0.00 | 0.00 | 95 | 1012.5 |
| 20260906101422 | 61 | 24 | 1.0 | 2.0 | 0.00 | 0.00 | 0.00 | 95 | 1012.5 |
| 20260906101127 | 61 | 24 | 0.0 | 2.0 | 0.00 | 0.00 | 0.00 | 95 | 1012.5 |
| 20260906100927 | 61 | 24 | 0.0 | 2.0 | 0.00 | 0.00 | 0.00 | 95 | 1012.4 |
| 20260906100605 | 61 | 24 | 0.0 | 2.0 | 0.00 | 0.00 | 0.00 | 94 | 1012.4 |
| 20260906100406 | 61 | 24 | 0.0 | 2.0 | 0.00 | 0.00 | 0.00 | 95 | 1012.4 |
| 20260906100104 | 61 | 24 | 1.0 | 2.0 | 0.00 | 0.00 | 0.00 | 95 | 1012.4 |
| 20260906095903 | 61 | 24 | 1.0 | 2.0 | 0.00 | 0.00 | 0.00 | 95 | 1012.4 |
| 20260906095628 | 61 | 24 | 0.0 | 2.0 | 0.00 | 0.00 | 0.00 | 95 | 1012.3 |
| 20260906095430 | 61 | 24 | 0.0 | 4.0 | 0.00 | 0.00 | 0.00 | 96 | 1012.3 |
| 20260906095108 | 61 | 24 | 1.0 | 4.0 | 0.00 | 0.00 | 0.00 | 95 | 1012.3 |
| 20260906094908 | 61 | 24 | 0.0 | 4.0 | 0.00 | 0.00 | 0.00 | 95 | 1012.3 |
| 20260906094613 | 61 | 24 | 1.0 | 3.0 | 0.00 | 0.00 | 0.00 | 95 | 1012.2 |
| 20260906094413 | 61 | 24 | 2.0 | 3.0 | 0.00 | 0.00 | 0.00 | 95 | 1012.1 |
| 20260906094111 | 60 | 24 | 2.0 | 3.0 | 0.00 | 0.00 | 0.00 | 95 | 1012.2 |
| 20260906093911 | 60 | 24 | 0.0 | 0.0 | 0.00 | 0.00 | 0.00 | 95 | 1012.1 |
| 20260906093610 | 60 | 24 | 0.0 | 0.0 | 0.00 | 0.00 | 0.00 | 95 | 1012.1 |
| 20260906093416 | 60 | 24 | 0.0 | 0.0 | 0.00 | 0.00 | 0.00 | 95 | 1012.1 |
| 20260906093114 | 60 | 24 | 0.0 | 0.0 | 0.00 | 0.00 | 0.00 | 94 | 1012.1 |
| 20260906092935 | 60 | 24 | 0.0 | 0.0 | 0.00 | 0.00 | 0.00 | 94 | 1012.0 |
| 20260906092639 | 60 | 24 | 0.0 | 0.0 | 0.00 | 0.00 | 0.00 | 94 | 1011.9 |
| 20260906092419 | 60 | 24 | 0.0 | 0.0 | 0.00 | 0.00 | 0.00 | 94 | 1011.9 |
| 20260906092117 | 61 | 24 | 0.0 | 0.0 | 0.00 | 0.00 | 0.00 | 94 | 1011.9 |
| 20260906091917 | 61 | 24 | 0.0 | 0.0 | 0.00 | 0.00 | 0.00 | 94 | 1011.9 |
| 20260906091603 | 61 | 24 | 0.0 | 0.0 | 0.00 | 0.00 | 0.00 | 94 | 1011.9 |
| 20260906091422 | 61 | 24 | 0.0 | 1.0 | 0.00 | 0.00 | 0.00 | 94 | 1011.8 |
| 20260906091120 | 61 | 24 | 0.0 | 2.0 | 0.00 | 0.00 | 0.00 | 94 | 1011.8 |
| 20260906090921 | 61 | 24 | 0.0 | 2.0 | 0.00 | 0.00 | 0.00 | 94 | 1011.7 |
| 20260906090625 | 61 | 24 | 1.0 | 2.0 | 0.00 | 0.00 | 0.00 | 94 | 1011.7 |
| 20260906090426 | 61 | 24 | 1.0 | 2.0 | 0.00 | 0.00 | 0.00 | 94 | 1011.6 |
| 20260906090104 | 61 | 24 | 1.0 | 2.0 | 0.00 | 0.00 | 0.00 | 94 | 1011.5 |
| 20260906085905 | 61 | 24 | 1.0 | 2.0 | 0.00 | 0.00 | 0.00 | 94 | 1011.6 |
| 20260906085620 | 61 | 24 | 1.0 | 2.0 | 0.00 | 0.00 | 0.00 | 94 | 1011.5 |
| 20260906085426 | 61 | 24 | 0.0 | 0.0 | 0.00 | 0.00 | 0.00 | 93 | 1011.5 |
| 20260906085125 | 61 | 24 | 0.0 | 0.0 | 0.00 | 0.00 | 0.00 | 93 | 1011.5 |
| 20260906084906 | 61 | 24 | 0.0 | 1.0 | 0.00 | 0.00 | 0.00 | 93 | 1011.6 |
| 20260906084604 | 61 | 24 | 0.0 | 2.0 | 0.00 | 0.00 | 0.00 | 93 | 1011.6 |
| 20260906084405 | 61 | 24 | 0.0 | 2.0 | 0.00 | 0.00 | 0.00 | 93 | 1011.5 |
| 20260906084103 | 61 | 24 | 0.0 | 2.0 | 0.00 | 0.00 | 0.00 | 93 | 1011.6 |
| 20260906083905 | 61 | 24 | 1.0 | 2.0 | 0.00 | 0.00 | 0.00 | 93 | 1011.6 |
| 20260906083609 | 61 | 24 | 0.0 | 1.0 | 0.00 | 0.00 | 0.00 | 93 | 1011.5 |
| 20260906083410 | 62 | 24 | 0.0 | 0.0 | 0.00 | 0.00 | 0.00 | 93 | 1011.6 |
| 20260906083107 | 62 | 24 | 0.0 | 0.0 | 0.00 | 0.00 | 0.00 | 93 | 1011.6 |
| 20260906082908 | 62 | 24 | 0.0 | 0.0 | 0.00 | 0.00 | 0.00 | 93 | 1011.5 |
| 20260906082607 | 62 | 24 | 0.0 | 2.0 | 0.00 | 0.00 | 0.00 | 93 | 1011.5 |
| 20260906082414 | 62 | 24 | 0.0 | 2.0 | 0.00 | 0.00 | 0.00 | 93 | 1011.5 |
| 20260906082132 | 62 | 24 | 0.0 | 3.0 | 0.00 | 0.00 | 0.00 | 93 | 1011.5 |
| 20260906081911 | 62 | 24 | 1.0 | 3.0 | 0.00 | 0.00 | 0.00 | 93 | 1011.5 |
| 20260906081615 | 62 | 24 | 1.0 | 3.0 | 0.00 | 0.00 | 0.00 | 93 | 1011.4 |
| 20260906081417 | 62 | 24 | 1.0 | 3.0 | 0.00 | 0.00 | 0.00 | 93 | 1011.4 |
| 20260906081115 | 62 | 24 | 0.0 | 0.0 | 0.00 | 0.00 | 0.00 | 93 | 1011.4 |
| 20260906080916 | 62 | 24 | 0.0 | 0.0 | 0.00 | 0.00 | 0.00 | 94 | 1011.3 |
| 20260906080615 | 62 | 24 | 0.0 | 0.0 | 0.00 | 0.00 | 0.00 | 93 | 1011.3 |
| 20260906080422 | 62 | 24 | 0.0 | 0.0 | 0.00 | 0.00 | 0.00 | 93 | 1011.3 |
| 20260906080120 | 62 | 24 | 0.0 | 0.0 | 0.00 | 0.00 | 0.00 | 93 | 1011.3 |
| 20260906075921 | 62 | 24 | 0.0 | 0.0 | 0.00 | 0.00 | 0.00 | 93 | 1011.3 |
| 20260906075620 | 62 | 24 | 0.0 | 0.0 | 0.00 | 0.00 | 0.00 | 93 | 1011.3 |
| 20260906075429 | 62 | 24 | 0.0 | 0.0 | 0.00 | 0.00 | 0.00 | 93 | 1011.2 |
| 20260906075125 | 62 | 24 | 0.0 | 0.0 | 0.00 | 0.00 | 0.00 | 92 | 1011.3 |
| 20260906074906 | 62 | 24 | 0.0 | 0.0 | 0.00 | 0.00 | 0.00 | 92 | 1011.3 |
| 20260906074604 | 62 | 24 | 0.0 | 0.0 | 0.00 | 0.00 | 0.00 | 92 | 1011.2 |
| 20260906074426 | 62 | 24 | 0.0 | 0.0 | 0.00 | 0.00 | 0.00 | 92 | 1011.3 |
| 20260906074111 | 62 | 24 | 0.0 | 0.0 | 0.00 | 0.00 | 0.00 | 92 | 1011.3 |
| 20260906073910 | 62 | 24 | 0.0 | 0.0 | 0.00 | 0.00 | 0.00 | 92 | 1011.3 |
| 20260906073609 | 62 | 24 | 0.0 | 0.0 | 0.00 | 0.00 | 0.00 | 92 | 1011.3 |
| 20260906073410 | 63 | 24 | 0.0 | 0.0 | 0.00 | 0.00 | 0.00 | 92 | 1011.3 |
| 20260906073106 | 63 | 24 | 0.0 | 0.0 | 0.00 | 0.00 | 0.00 | 92 | 1011.3 |
| 20260906072915 | 63 | 24 | 0.0 | 0.0 | 0.00 | 0.00 | 0.00 | 91 | 1011.3 |
| 20260906072611 | 63 | 24 | 0.0 | 0.0 | 0.00 | 0.00 | 0.00 | 92 | 1011.4 |
| 20260906072432 | 63 | 24 | 0.0 | 0.0 | 0.00 | 0.00 | 0.00 | 92 | 1011.4 |
| 20260906072137 | 63 | 24 | 0.0 | 0.0 | 0.00 | 0.00 | 0.00 | 91 | 1011.3 |
| 20260906071917 | 63 | 24 | 0.0 | 0.0 | 0.00 | 0.00 | 0.00 | 91 | 1011.3 |
| 20260906071638 | 63 | 24 | 0.0 | 0.0 | 0.00 | 0.00 | 0.00 | 91 | 1011.3 |
| 20260906071422 | 63 | 24 | 0.0 | 0.0 | 0.00 | 0.00 | 0.00 | 91 | 1011.2 |
| 20260906071117 | 63 | 24 | 0.0 | 0.0 | 0.00 | 0.00 | 0.00 | 91 | 1011.2 |
| 20260906070922 | 64 | 24 | 0.0 | 0.0 | 0.00 | 0.00 | 0.00 | 91 | 1011.2 |
| 20260906070616 | 64 | 24 | 0.0 | 0.0 | 0.00 | 0.00 | 0.00 | 91 | 1011.2 |
| 20260906070427 | 64 | 24 | 0.0 | 0.0 | 0.00 | 0.00 | 0.00 | 91 | 1011.2 |
| 20260906070105 | 64 | 24 | 0.0 | 0.0 | 0.00 | 0.00 | 0.00 | 91 | 1011.3 |
| 20260906065907 | 64 | 24 | 0.0 | 0.0 | 0.00 | 0.00 | 0.00 | 91 | 1011.3 |
| 20260906065605 | 64 | 24 | 0.0 | 0.0 | 0.00 | 0.00 | 0.00 | 92 | 1011.2 |
| 20260906065405 | 64 | 24 | 0.0 | 0.0 | 0.00 | 0.00 | 0.00 | 92 | 1011.2 |
| 20260906065124 | 64 | 24 | 0.0 | 0.0 | 0.00 | 0.00 | 0.00 | 91 | 1011.3 |
| 20260906064910 | 64 | 24 | 0.0 | 0.0 | 0.00 | 0.00 | 0.00 | 91 | 1011.3 |
| 20260906064607 | 64 | 24 | 0.0 | 0.0 | 0.00 | 0.00 | 0.00 | 91 | 1011.4 |
| 20260906064408 | 64 | 24 | 0.0 | 0.0 | 0.00 | 0.00 | 0.00 | 91 | 1011.4 |
| 20260906064105 | 64 | 24 | 0.0 | 0.0 | 0.00 | 0.00 | 0.00 | 91 | 1011.4 |
| 20260906063906 | 64 | 24 | 0.0 | 0.0 | 0.00 | 0.00 | 0.00 | 91 | 1011.3 |
| 20260906063613 | 64 | 24 | 0.0 | 0.0 | 0.00 | 0.00 | 0.00 | 91 | 1011.3 |
| 20260906063412 | 64 | 24 | 0.0 | 0.0 | 0.00 | 0.00 | 0.00 | 91 | 1011.3 |
| 20260906063127 | 64 | 24 | 0.0 | 0.0 | 0.00 | 0.00 | 0.00 | 91 | 1011.2 |
| 20260906062920 | 64 | 24 | 0.0 | 0.0 | 0.00 | 0.00 | 0.00 | 91 | 1011.2 |
| 20260906062611 | 64 | 24 | 0.0 | 0.0 | 0.00 | 0.00 | 0.00 | 91 | 1011.2 |
| 20260906062437 | 64 | 24 | 0.0 | 3.0 | 0.00 | 0.00 | 0.00 | 91 | 1011.3 |
| 20260906062110 | 64 | 24 | 0.0 | 3.0 | 0.00 | 0.00 | 0.00 | 91 | 1011.3 |
| 20260906061921 | 64 | 24 | 0.0 | 3.0 | 0.00 | 0.00 | 0.00 | 91 | 1011.3 |
| 20260906061616 | 64 | 24 | 1.0 | 3.0 | 0.00 | 0.00 | 0.00 | 91 | 1011.4 |
| 20260906061421 | 64 | 24 | 2.0 | 3.0 | 0.00 | 0.00 | 0.00 | 91 | 1011.4 |
| 20260906061115 | 64 | 24 | 2.0 | 2.0 | 0.00 | 0.00 | 0.00 | 91 | 1011.5 |
| 20260906060927 | 64 | 24 | 1.0 | 2.0 | 0.00 | 0.00 | 0.00 | 91 | 1011.5 |
| 20260906060620 | 64 | 24 | 1.0 | 2.0 | 0.00 | 0.00 | 0.00 | 91 | 1011.5 |
| 20260906060405 | 64 | 24 | 0.0 | 2.0 | 0.00 | 0.00 | 0.00 | 91 | 1011.5 |
| 20260906060119 | 64 | 24 | 0.0 | 2.0 | 0.00 | 0.00 | 0.00 | 90 | 1011.6 |
| 20260906055925 | 64 | 24 | 1.0 | 2.0 | 0.00 | 0.00 | 0.00 | 90 | 1011.6 |
| 20260906055605 | 64 | 24 | 1.0 | 2.0 | 0.00 | 0.00 | 0.00 | 90 | 1011.6 |
| 20260906055410 | 64 | 24 | 0.0 | 2.0 | 0.00 | 0.00 | 0.00 | 90 | 1011.6 |
| 20260906055104 | 65 | 24 | 1.0 | 2.0 | 0.00 | 0.00 | 0.00 | 90 | 1011.6 |
| 20260906054908 | 65 | 24 | 0.0 | 2.0 | 0.00 | 0.00 | 0.00 | 90 | 1011.6 |
| 20260906054629 | 65 | 24 | 0.0 | 0.0 | 0.00 | 0.00 | 0.00 | 90 | 1011.6 |
| 20260906054435 | 65 | 24 | 0.0 | 0.0 | 0.00 | 0.00 | 0.00 | 90 | 1011.6 |
| 20260906054108 | 65 | 24 | 0.0 | 2.0 | 0.00 | 0.00 | 0.00 | 90 | 1011.6 |
| 20260906053940 | 65 | 24 | 0.0 | 3.0 | 0.00 | 0.00 | 0.00 | 89 | 1011.6 |
| 20260906053613 | 65 | 24 | 0.0 | 3.0 | 0.00 | 0.00 | 0.00 | 89 | 1011.6 |
| 20260906053418 | 65 | 24 | 1.0 | 3.0 | 0.00 | 0.00 | 0.00 | 89 | 1011.5 |
| 20260906053113 | 65 | 24 | 2.0 | 3.0 | 0.00 | 0.00 | 0.00 | 90 | 1011.6 |
| 20260906052916 | 65 | 24 | 2.0 | 3.0 | 0.00 | 0.00 | 0.00 | 90 | 1011.5 |
| 20260906052616 | 65 | 24 | 1.0 | 4.0 | 0.00 | 0.00 | 0.00 | 91 | 1011.6 |
| 20260906052421 | 65 | 24 | 1.0 | 4.0 | 0.00 | 0.00 | 0.00 | 90 | 1011.6 |
| 20260906052137 | 65 | 24 | 1.0 | 4.0 | 0.00 | 0.00 | 0.00 | 90 | 1011.6 |
| 20260906051927 | 65 | 24 | 2.0 | 4.0 | 0.00 | 0.00 | 0.00 | 90 | 1011.6 |
| 20260906051620 | 65 | 24 | 2.0 | 3.0 | 0.00 | 0.00 | 0.00 | 90 | 1011.6 |
| 20260906051405 | 65 | 24 | 2.0 | 3.0 | 0.00 | 0.00 | 0.00 | 90 | 1011.7 |
| 20260906051146 | 65 | 24 | 1.0 | 3.0 | 0.00 | 0.00 | 0.00 | 90 | 1011.6 |
| 20260906050910 | 65 | 24 | 2.0 | 3.0 | 0.00 | 0.00 | 0.00 | 90 | 1011.7 |
| 20260906050603 | 65 | 24 | 2.0 | 3.0 | 0.00 | 0.00 | 0.00 | 89 | 1011.7 |
| 20260906050424 | 65 | 24 | 2.0 | 3.0 | 0.00 | 0.00 | 0.00 | 89 | 1011.7 |
| 20260906050108 | 65 | 24 | 1.0 | 2.0 | 0.00 | 0.00 | 0.00 | 89 | 1011.7 |
| 20260906045907 | 65 | 24 | 1.0 | 2.0 | 0.00 | 0.00 | 0.00 | 89 | 1011.7 |
| 20260906045604 | 65 | 24 | 1.0 | 2.0 | 0.00 | 0.00 | 0.00 | 89 | 1011.7 |
| 20260906045434 | 66 | 24 | 1.0 | 2.0 | 0.00 | 0.00 | 0.00 | 89 | 1011.7 |
| 20260906045110 | 66 | 24 | 0.0 | 1.0 | 0.00 | 0.00 | 0.00 | 89 | 1011.7 |
| 20260906044909 | 66 | 24 | 0.0 | 1.0 | 0.00 | 0.00 | 0.00 | 89 | 1011.7 |
| 20260906044608 | 66 | 24 | 1.0 | 1.0 | 0.00 | 0.00 | 0.00 | 89 | 1011.6 |
| 20260906044407 | 66 | 24 | 0.0 | 1.0 | 0.00 | 0.00 | 0.00 | 88 | 1011.6 |
| 20260906044105 | 66 | 24 | 0.0 | 1.0 | 0.00 | 0.00 | 0.00 | 88 | 1011.6 |
| 20260906043912 | 66 | 24 | 0.0 | 1.0 | 0.00 | 0.00 | 0.00 | 88 | 1011.6 |
| 20260906043610 | 66 | 24 | 0.0 | 1.0 | 0.00 | 0.00 | 0.00 | 88 | 1011.6 |
| 20260906043411 | 66 | 24 | 0.0 | 1.0 | 0.00 | 0.00 | 0.00 | 88 | 1011.6 |
| 20260906043108 | 66 | 24 | 0.0 | 2.0 | 0.00 | 0.00 | 0.00 | 88 | 1011.5 |
| 20260906042909 | 66 | 24 | 0.0 | 2.0 | 0.00 | 0.00 | 0.00 | 88 | 1011.4 |
| 20260906042634 | 66 | 24 | 1.0 | 2.0 | 0.00 | 0.00 | 0.00 | 88 | 1011.5 |
| 20260906042413 | 66 | 24 | 1.0 | 2.0 | 0.00 | 0.00 | 0.00 | 88 | 1011.5 |
| 20260906042109 | 66 | 24 | 1.0 | 2.0 | 0.00 | 0.00 | 0.00 | 87 | 1011.5 |
| 20260906041916 | 67 | 24 | 1.0 | 2.0 | 0.00 | 0.00 | 0.00 | 87 | 1011.5 |
| 20260906041615 | 67 | 24 | 1.0 | 3.0 | 0.00 | 0.00 | 0.00 | 87 | 1011.5 |
| 20260906041444 | 67 | 24 | 1.0 | 3.0 | 0.00 | 0.00 | 0.00 | 87 | 1011.5 |
| 20260906041120 | 67 | 24 | 1.0 | 4.0 | 0.00 | 0.00 | 0.00 | 87 | 1011.4 |
| 20260906040920 | 67 | 24 | 2.0 | 4.0 | 0.00 | 0.00 | 0.00 | 87 | 1011.5 |
| 20260906040618 | 67 | 24 | 2.0 | 4.0 | 0.00 | 0.00 | 0.00 | 86 | 1011.4 |
| 20260906040446 | 67 | 24 | 2.0 | 4.0 | 0.00 | 0.00 | 0.00 | 86 | 1011.5 |
| 20260906040123 | 67 | 24 | 2.0 | 3.0 | 0.00 | 0.00 | 0.00 | 86 | 1011.4 |
| 20260906035903 | 67 | 24 | 2.0 | 3.0 | 0.00 | 0.00 | 0.00 | 86 | 1011.4 |
| 20260906035622 | 67 | 24 | 1.0 | 2.0 | 0.00 | 0.00 | 0.00 | 87 | 1011.5 |
| 20260906035422 | 67 | 24 | 1.0 | 2.0 | 0.00 | 0.00 | 0.00 | 86 | 1011.6 |
| 20260906035127 | 67 | 24 | 1.0 | 2.0 | 0.00 | 0.00 | 0.00 | 86 | 1011.5 |
| 20260906034927 | 67 | 24 | 1.0 | 2.0 | 0.00 | 0.00 | 0.00 | 86 | 1011.6 |
| 20260906034606 | 67 | 24 | 1.0 | 3.0 | 0.00 | 0.00 | 0.00 | 85 | 1011.5 |
| 20260906034406 | 67 | 24 | 2.0 | 3.0 | 0.00 | 0.00 | 0.00 | 84 | 1011.5 |
| 20260906034103 | 68 | 24 | 2.0 | 3.0 | 0.00 | 0.00 | 0.00 | 84 | 1011.4 |
| 20260906033904 | 68 | 24 | 2.0 | 3.0 | 0.00 | 0.00 | 0.00 | 84 | 1011.3 |
| 20260906033628 | 68 | 24 | 2.0 | 5.0 | 0.00 | 0.00 | 0.00 | 84 | 1011.3 |
| 20260906033409 | 68 | 24 | 2.0 | 5.0 | 0.00 | 0.00 | 0.00 | 83 | 1011.3 |
| 20260906033108 | 68 | 24 | 2.0 | 5.0 | 0.00 | 0.00 | 0.00 | 83 | 1011.3 |
| 20260906032909 | 68 | 27 | 2.0 | 4.0 | 0.00 | 0.00 | 0.00 | 83 | 1011.3 |
| 20260906032608 | 68 | 27 | 3.0 | 4.0 | 0.00 | 0.00 | 0.00 | 84 | 1011.3 |
| 20260906032407 | 68 | 28 | 2.0 | 4.0 | 0.00 | 0.00 | 0.00 | 84 | 1011.2 |
| 20260906032112 | 68 | 28 | 2.0 | 4.0 | 0.00 | 0.00 | 0.00 | 84 | 1011.2 |
| 20260906031913 | 68 | 28 | 2.0 | 3.0 | 0.00 | 0.00 | 0.00 | 84 | 1011.2 |
| 20260906031638 | 68 | 28 | 2.0 | 3.0 | 0.00 | 0.00 | 0.00 | 85 | 1011.1 |
| 20260906031417 | 68 | 28 | 2.0 | 3.0 | 0.00 | 0.00 | 0.00 | 85 | 1011.0 |
| 20260906031116 | 68 | 28 | 1.0 | 3.0 | 0.00 | 0.00 | 0.00 | 85 | 1011.1 |
| 20260906030938 | 68 | 28 | 1.0 | 3.0 | 0.00 | 0.00 | 0.00 | 85 | 1011.0 |
| 20260906030621 | 68 | 28 | 1.0 | 3.0 | 0.00 | 0.00 | 0.00 | 85 | 1011.1 |
| 20260906030403 | 68 | 28 | 1.0 | 3.0 | 0.00 | 0.00 | 0.00 | 85 | 1011.1 |
| 20260906030142 | 68 | 28 | 1.0 | 2.0 | 0.00 | 0.00 | 0.00 | 84 | 1011.1 |
| 20260906025928 | 68 | 28 | 1.0 | 2.0 | 0.00 | 0.00 | 0.00 | 84 | 1011.1 |
| 20260906025626 | 68 | 28 | 0.0 | 2.0 | 0.00 | 0.00 | 0.00 | 84 | 1011.2 |
| 20260906025428 | 69 | 28 | 1.0 | 4.0 | 0.00 | 0.00 | 0.00 | 83 | 1011.2 |
| 20260906025106 | 69 | 28 | 1.0 | 4.0 | 0.00 | 0.00 | 0.00 | 83 | 1011.1 |
| 20260906024906 | 69 | 28 | 2.0 | 4.0 | 0.00 | 0.00 | 0.00 | 83 | 1011.1 |
| 20260906024610 | 69 | 28 | 3.0 | 4.0 | 0.00 | 0.00 | 0.00 | 84 | 1011.1 |
| 20260906024411 | 68 | 28 | 3.0 | 3.0 | 0.00 | 0.00 | 0.00 | 84 | 1011.1 |
| 20260906024110 | 68 | 28 | 2.0 | 3.0 | 0.00 | 0.00 | 0.00 | 85 | 1011.1 |
| 20260906023911 | 68 | 28 | 2.0 | 3.0 | 0.00 | 0.00 | 0.00 | 84 | 1011.1 |
| 20260906023636 | 68 | 28 | 2.0 | 4.0 | 0.00 | 0.00 | 0.00 | 85 | 1011.1 |
| 20260906023416 | 68 | 28 | 1.0 | 4.0 | 0.00 | 0.00 | 0.00 | 85 | 1011.1 |
| 20260906023114 | 68 | 28 | 1.0 | 4.0 | 0.00 | 0.00 | 0.00 | 86 | 1011.0 |
| 20260906022916 | 68 | 28 | 2.0 | 4.0 | 0.00 | 0.00 | 0.00 | 86 | 1011.0 |
| 20260906022621 | 68 | 28 | 1.0 | 3.0 | 0.00 | 0.00 | 0.00 | 86 | 1011.1 |
| 20260906022421 | 68 | 28 | 1.0 | 3.0 | 0.00 | 0.00 | 0.00 | 86 | 1011.1 |
| 20260906022119 | 68 | 28 | 1.0 | 2.0 | 0.00 | 0.00 | 0.00 | 86 | 1011.1 |
| 20260906021941 | 68 | 28 | 1.0 | 1.0 | 0.00 | 0.00 | 0.00 | 86 | 1011.1 |
| 20260906021605 | 68 | 28 | 0.0 | 2.0 | 0.00 | 0.00 | 0.00 | 86 | 1011.2 |
| 20260906021405 | 68 | 28 | 0.0 | 2.0 | 0.00 | 0.00 | 0.00 | 86 | 1011.2 |
| 20260906021118 | 68 | 28 | 0.0 | 2.0 | 0.00 | 0.00 | 0.00 | 86 | 1011.1 |
| 20260906020922 | 68 | 28 | 1.0 | 2.0 | 0.00 | 0.00 | 0.00 | 85 | 1011.1 |
| 20260906020623 | 69 | 28 | 1.0 | 2.0 | 0.00 | 0.00 | 0.00 | 86 | 1011.1 |
| 20260906020426 | 69 | 28 | 0.0 | 1.0 | 0.00 | 0.00 | 0.00 | 85 | 1011.0 |
| 20260906020141 | 69 | 28 | 0.0 | 2.0 | 0.00 | 0.00 | 0.00 | 85 | 1011.0 |
| 20260906015932 | 69 | 28 | 0.0 | 2.0 | 0.00 | 0.00 | 0.00 | 85 | 1011.0 |
| 20260906015625 | 69 | 28 | 1.0 | 2.0 | 0.00 | 0.00 | 0.00 | 85 | 1011.0 |
| 20260906015408 | 69 | 28 | 1.0 | 2.0 | 0.00 | 0.00 | 0.00 | 85 | 1011.1 |
| 20260906015111 | 69 | 28 | 1.0 | 1.0 | 0.00 | 0.00 | 0.00 | 85 | 1011.1 |
| 20260906014935 | 69 | 28 | 0.0 | 1.0 | 0.00 | 0.00 | 0.00 | 85 | 1011.0 |
| 20260906014635 | 70 | 28 | 1.0 | 1.0 | 0.00 | 0.00 | 0.00 | 85 | 1011.0 |
| 20260906014419 | 70 | 28 | 0.0 | 2.0 | 0.00 | 0.00 | 0.00 | 85 | 1011.0 |
| 20260906014114 | 70 | 28 | 0.0 | 3.0 | 0.00 | 0.00 | 0.00 | 85 | 1011.0 |
| 20260906013919 | 70 | 28 | 0.0 | 3.0 | 0.00 | 0.00 | 0.00 | 85 | 1011.0 |
| 20260906013640 | 70 | 28 | 1.0 | 4.0 | 0.00 | 0.00 | 0.00 | 85 | 1011.0 |
| 20260906013404 | 70 | 28 | 1.0 | 4.0 | 0.00 | 0.00 | 0.00 | 86 | 1011.0 |
| 20260906013118 | 70 | 28 | 2.0 | 4.0 | 0.00 | 0.00 | 0.00 | 86 | 1010.9 |
| 20260906012945 | 70 | 28 | 2.0 | 4.0 | 0.00 | 0.00 | 0.00 | 86 | 1010.9 |
| 20260906012622 | 70 | 28 | 1.0 | 3.0 | 0.00 | 0.00 | 0.00 | 86 | 1010.9 |
| 20260906012403 | 70 | 28 | 2.0 | 3.0 | 0.00 | 0.00 | 0.00 | 85 | 1010.8 |
| 20260906012122 | 70 | 28 | 2.0 | 3.0 | 0.00 | 0.00 | 0.00 | 85 | 1010.8 |
| 20260906011922 | 70 | 28 | 2.0 | 3.0 | 0.00 | 0.00 | 0.00 | 85 | 1010.8 |
| 20260906011606 | 70 | 28 | 2.0 | 4.0 | 0.00 | 0.00 | 0.00 | 85 | 1010.9 |
| 20260906011406 | 70 | 28 | 2.0 | 4.0 | 0.00 | 0.00 | 0.00 | 85 | 1010.9 |
| 20260906011104 | 70 | 28 | 2.0 | 4.0 | 0.00 | 0.00 | 0.00 | 84 | 1010.8 |
| 20260906010904 | 70 | 28 | 3.0 | 4.0 | 0.00 | 0.00 | 0.00 | 84 | 1010.8 |
| 20260906010629 | 70 | 28 | 2.0 | 4.0 | 0.00 | 0.00 | 0.00 | 83 | 1010.7 |
| 20260906010430 | 70 | 28 | 2.0 | 2.0 | 0.00 | 0.00 | 0.00 | 82 | 1010.7 |
| 20260906010107 | 70 | 28 | 1.0 | 2.0 | 0.00 | 0.00 | 0.00 | 82 | 1010.6 |
| 20260906005913 | 70 | 28 | 1.0 | 2.0 | 0.00 | 0.00 | 0.00 | 82 | 1010.5 |
| 20260906005611 | 71 | 28 | 2.0 | 3.0 | 0.00 | 0.00 | 0.00 | 81 | 1010.5 |
| 20260906005433 | 71 | 28 | 1.0 | 3.0 | 0.00 | 0.00 | 0.00 | 81 | 1010.4 |
| 20260906005117 | 71 | 28 | 1.0 | 3.0 | 0.00 | 0.00 | 0.00 | 80 | 1010.4 |
| 20260906004917 | 71 | 28 | 2.0 | 3.0 | 0.00 | 0.00 | 0.00 | 80 | 1010.4 |
| 20260906004615 | 71 | 28 | 1.0 | 2.0 | 0.00 | 0.00 | 0.00 | 80 | 1010.4 |
| 20260906004415 | 71 | 28 | 1.0 | 2.0 | 0.00 | 0.00 | 0.00 | 80 | 1010.4 |
| 20260906004112 | 71 | 28 | 0.0 | 2.0 | 0.00 | 0.00 | 0.00 | 80 | 1010.4 |
| 20260906003920 | 71 | 28 | 0.0 | 3.0 | 0.00 | 0.00 | 0.00 | 80 | 1010.3 |
| 20260906003617 | 72 | 28 | 1.0 | 3.0 | 0.00 | 0.00 | 0.00 | 79 | 1010.4 |
| 20260906003418 | 72 | 28 | 1.0 | 3.0 | 0.00 | 0.00 | 0.00 | 79 | 1010.4 |
| 20260906003116 | 72 | 28 | 1.0 | 4.0 | 0.00 | 0.00 | 0.00 | 79 | 1010.2 |
| 20260906002944 | 72 | 28 | 1.0 | 4.0 | 0.00 | 0.00 | 0.00 | 79 | 1010.2 |
| 20260906002621 | 72 | 28 | 2.0 | 4.0 | 0.00 | 0.00 | 0.00 | 80 | 1010.2 |
| 20260906002422 | 72 | 28 | 2.0 | 4.0 | 0.00 | 0.00 | 0.00 | 80 | 1010.1 |
| 20260906002120 | 72 | 29 | 2.0 | 4.0 | 0.00 | 0.00 | 0.00 | 80 | 1010.2 |
| 20260906001920 | 72 | 29 | 1.0 | 3.0 | 0.00 | 0.00 | 0.00 | 81 | 1010.2 |
| 20260906001607 | 72 | 29 | 1.0 | 4.0 | 0.00 | 0.00 | 0.00 | 82 | 1010.2 |
| 20260906001427 | 71 | 29 | 1.0 | 4.0 | 0.00 | 0.00 | 0.00 | 82 | 1010.2 |
| 20260906001130 | 71 | 29 | 1.0 | 4.0 | 0.00 | 0.00 | 0.00 | 81 | 1010.2 |
| 20260906000930 | 71 | 29 | 2.0 | 4.0 | 0.00 | 0.00 | 0.00 | 81 | 1010.1 |
| 20260906000607 | 72 | 29 | 1.0 | 2.0 | 0.00 | 0.00 | 0.00 | 81 | 1010.0 |
| 20260906000414 | 72 | 29 | 0.0 | 2.0 | 0.00 | 0.00 | 0.00 | 81 | 1010.0 |
| 20260906000112 | 72 | 29 | 1.0 | 2.0 | 0.00 | 0.00 | 0.00 | 80 | 1010.0 |
| 20260905235912 | 72 | 29 | 0.0 | 1.0 | 0.00 | 0.00 | 0.00 | 80 | 1010.0 |
| 20260905235611 | 72 | 29 | 0.0 | 2.0 | 0.00 | 0.00 | 0.00 | 80 | 1010.0 |
| 20260905235412 | 72 | 29 | 0.0 | 2.0 | 0.00 | 0.00 | 0.00 | 79 | 1009.9 |
| 20260905235116 | 73 | 29 | 0.0 | 2.0 | 0.00 | 0.00 | 0.00 | 79 | 1009.9 |
| 20260905234917 | 73 | 29 | 1.0 | 2.0 | 0.00 | 0.00 | 0.00 | 78 | 1009.8 |
| 20260905234616 | 73 | 29 | 1.0 | 3.0 | 0.00 | 0.00 | 0.00 | 78 | 1009.7 |
| 20260905234416 | 73 | 29 | 1.0 | 3.0 | 0.00 | 0.00 | 0.00 | 78 | 1009.7 |
| 20260905234114 | 73 | 29 | 1.0 | 3.0 | 0.00 | 0.00 | 0.00 | 78 | 1009.7 |
| 20260905233922 | 73 | 29 | 1.0 | 3.0 | 0.00 | 0.00 | 0.00 | 78 | 1009.7 |
| 20260905233619 | 73 | 29 | 1.0 | 2.0 | 0.00 | 0.00 | 0.00 | 78 | 1009.7 |
| 20260905233421 | 73 | 29 | 0.0 | 2.0 | 0.00 | 0.00 | 0.00 | 77 | 1009.7 |
| 20260905233118 | 73 | 29 | 0.0 | 2.0 | 0.00 | 0.00 | 0.00 | 77 | 1009.7 |
| 20260905232918 | 74 | 29 | 1.0 | 2.0 | 0.00 | 0.00 | 0.00 | 77 | 1009.6 |
| 20260905232624 | 74 | 29 | 0.0 | 1.0 | 0.00 | 0.00 | 0.00 | 76 | 1009.7 |
| 20260905232423 | 74 | 29 | 0.0 | 1.0 | 0.00 | 0.00 | 0.00 | 76 | 1009.7 |
| 20260905232122 | 74 | 29 | 0.0 | 1.0 | 0.00 | 0.00 | 0.00 | 76 | 1009.7 |
| 20260905231923 | 74 | 29 | 0.0 | 1.0 | 0.00 | 0.00 | 0.00 | 75 | 1009.7 |
| 20260905231620 | 75 | 29 | 1.0 | 1.0 | 0.00 | 0.00 | 0.00 | 75 | 1009.8 |
| 20260905231427 | 75 | 29 | 0.0 | 1.0 | 0.00 | 0.00 | 0.00 | 75 | 1009.8 |
| 20260905231106 | 75 | 29 | 0.0 | 1.0 | 0.00 | 0.00 | 0.00 | 74 | 1009.8 |
| 20260905230907 | 75 | 29 | 0.0 | 1.0 | 0.00 | 0.00 | 0.00 | 73 | 1009.8 |
| 20260905230625 | 75 | 29 | 0.0 | 2.0 | 0.00 | 0.00 | 0.00 | 73 | 1009.8 |
| 20260905230405 | 75 | 29 | 0.0 | 4.0 | 0.00 | 0.00 | 0.00 | 73 | 1009.8 |
| 20260905230109 | 75 | 29 | 1.0 | 4.0 | 0.00 | 0.00 | 0.00 | 72 | 1009.7 |
| 20260905225930 | 75 | 29 | 1.0 | 4.0 | 0.00 | 0.00 | 0.00 | 72 | 1009.6 |
| 20260905225607 | 76 | 29 | 2.0 | 4.0 | 0.00 | 0.00 | 0.00 | 72 | 1009.6 |
| 20260905225435 | 76 | 30 | 2.0 | 4.0 | 0.00 | 0.00 | 0.00 | 71 | 1009.7 |
| 20260905225108 | 76 | 30 | 2.0 | 4.0 | 0.00 | 0.00 | 0.00 | 70 | 1009.7 |
| 20260905224913 | 76 | 30 | 1.0 | 4.0 | 0.00 | 0.00 | 0.00 | 70 | 1009.7 |
| 20260905224615 | 76 | 30 | 2.0 | 4.0 | 0.00 | 0.00 | 0.00 | 70 | 1009.7 |
| 20260905224418 | 76 | 30 | 2.0 | 4.0 | 0.00 | 0.00 | 0.00 | 70 | 1009.6 |
| 20260905224112 | 76 | 32 | 1.0 | 4.0 | 0.00 | 0.00 | 0.00 | 70 | 1009.6 |
| 20260905223917 | 76 | 32 | 2.0 | 4.0 | 0.00 | 0.00 | 0.00 | 70 | 1009.5 |
| 20260905223611 | 76 | 55 | 2.0 | 4.0 | 0.00 | 0.00 | 0.00 | 69 | 1009.5 |
| 20260905223422 | 76 | 55 | 2.0 | 4.0 | 0.00 | 0.00 | 0.00 | 69 | 1009.5 |
| 20260905223116 | 77 | 55 | 3.0 | 4.0 | 0.00 | 0.00 | 0.00 | 68 | 1009.4 |
| 20260905222921 | 77 | 56 | 2.0 | 5.0 | 0.00 | 0.00 | 0.00 | 68 | 1009.4 |
| 20260905222615 | 77 | 56 | 2.0 | 5.0 | 0.00 | 0.00 | 0.00 | 68 | 1009.4 |
| 20260905222419 | 77 | 56 | 2.0 | 5.0 | 0.00 | 0.00 | 0.00 | 68 | 1009.4 |
| 20260905222114 | 77 | 25 | 2.0 | 4.0 | 0.00 | 0.00 | 0.00 | 69 | 1009.4 |
| 20260905221926 | 77 | 13 | 2.0 | 4.0 | 0.00 | 0.00 | 0.00 | 69 | 1009.3 |
| 20260905221619 | 77 | 13 | 2.0 | 4.0 | 0.00 | 0.00 | 0.00 | 69 | 1009.3 |
| 20260905221404 | 77 | 3 | 2.0 | 4.0 | 0.00 | 0.00 | 0.00 | 69 | 1009.3 |
| 20260905221125 | 77 | 9 | 1.0 | 3.0 | 0.00 | 0.00 | 0.00 | 69 | 1009.3 |
| 20260905220909 | 77 | 9 | 2.0 | 4.0 | 0.00 | 0.00 | 0.00 | 69 | 1009.3 |
| 20260905220603 | 77 | 10 | 1.0 | 4.0 | 0.00 | 0.00 | 0.00 | 68 | 1009.3 |
| 20260905220408 | 77 | 10 | 2.0 | 4.0 | 0.00 | 0.00 | 0.00 | 68 | 1009.3 |
| 20260905220129 | 77 | 7 | 1.0 | 3.0 | 0.00 | 0.00 | 0.00 | 68 | 1009.4 |
| 20260905215934 | 77 | 7 | 1.0 | 3.0 | 0.00 | 0.00 | 0.00 | 69 | 1009.3 |
| 20260905215607 | 77 | 7 | 2.0 | 3.0 | 0.00 | 0.00 | 0.00 | 67 | 1009.4 |
| 20260905215439 | 77 | 7 | 2.0 | 3.0 | 0.00 | 0.00 | 0.00 | 67 | 1009.3 |
| 20260905215113 | 77 | 6 | 0.0 | 3.0 | 0.00 | 0.00 | 0.00 | 66 | 1009.2 |
| 20260905214918 | 77 | 6 | 2.0 | 4.0 | 0.00 | 0.00 | 0.00 | 65 | 1009.2 |
| 20260905214620 | 78 | 6 | 1.0 | 4.0 | 0.00 | 0.00 | 0.00 | 65 | 1009.1 |
| 20260905214424 | 78 | 6 | 2.0 | 4.0 | 0.00 | 0.00 | 0.00 | 65 | 1009.1 |
| 20260905214117 | 78 | 4 | 2.0 | 3.0 | 0.00 | 0.00 | 0.00 | 64 | 1009.1 |
| 20260905213927 | 78 | 4 | 0.0 | 2.0 | 0.00 | 0.00 | 0.00 | 65 | 1009.1 |
| 20260905213621 | 78 | 4 | 0.0 | 3.0 | 0.00 | 0.00 | 0.00 | 64 | 1009.1 |
| 20260905213406 | 78 | 4 | 1.0 | 3.0 | 0.00 | 0.00 | 0.00 | 64 | 1009.0 |
| 20260905213121 | 78 | 4 | 1.0 | 3.0 | 0.00 | 0.00 | 0.00 | 63 | 1009.0 |
| 20260905212906 | 79 | 4 | 2.0 | 3.0 | 0.00 | 0.00 | 0.00 | 62 | 1009.0 |
| 20260905212620 | 79 | 4 | 2.0 | 3.0 | 0.00 | 0.00 | 0.00 | 62 | 1009.1 |
| 20260905212405 | 79 | 2 | 1.0 | 3.0 | 0.00 | 0.00 | 0.00 | 64 | 1009.2 |
| 20260905212125 | 78 | 2 | 1.0 | 2.0 | 0.00 | 0.00 | 0.00 | 64 | 1009.2 |
| 20260905211910 | 78 | 2 | 1.0 | 3.0 | 0.00 | 0.00 | 0.00 | 64 | 1009.1 |
| 20260905211605 | 78 | 2 | 0.0 | 3.0 | 0.00 | 0.00 | 0.00 | 64 | 1009.1 |
| 20260905211436 | 78 | 2 | 0.0 | 3.0 | 0.00 | 0.00 | 0.00 | 64 | 1009.0 |
| 20260905211108 | 78 | 2 | 1.0 | 2.0 | 0.00 | 0.00 | 0.00 | 63 | 1009.0 |
| 20260905210913 | 78 | 2 | 1.0 | 3.0 | 0.00 | 0.00 | 0.00 | 65 | 1008.9 |
| 20260905210608 | 78 | 2 | 0.0 | 3.0 | 0.00 | 0.00 | 0.00 | 64 | 1008.9 |
| 20260905210412 | 77 | 2 | 1.0 | 3.0 | 0.00 | 0.00 | 0.00 | 63 | 1009.0 |